Wind_Speed
15 15 16 15 16 15 15 15 14 13 11 10 10 9 10 9 10 9 9 10 9 9 8 8 7 7 7 8 8 8 9 10 11 11 11 12 13 13 14 14 14 14 13 13 13 13 13 13 13 13 12 11 12 11 13 16 12 12 12 14 16 15 16 13 11 8 6 6 3 2 3 5 6 7 9 12 15 15 13 13 12 12 12 11 15 18 18 17
15 15 15 15 15 15 15 14 13 12 11 10 9 9 9 9 9 9 9 9 8 8 7 7 7 6 7 6 7 7 8 8 9 10 10 11 11 12 12 12 12 12 12 12 11 12 12 11 12 12 11 10 10 11 14 16 14 14 13 15 16 15 12 8 8 7 6 8 6 4 5 6 8 9 8 10 11 15 16 14 15 14 16 19 15 13 17 18
14 14 14 14 14 14 14 13 12 11 10 9 9 8 8 8 8 8 8 8 7 7 6 6 6 6 6 5 5 5 5 6 8 8 9 10 10 10 11 10 10 11 10 11 11 11 11 9 11 12 10 11 11 12 13 14 15 15 15 16 15 14 11 6 8 10 9 10 7 7 8 7 9 9 8 9 8 13 16 17 18 16 17 21 17 13 17 18
13 13 13 13 13 13 13 12 11 10 9 8 8 7 7 7 7 7 7 7 6 6 6 5 5 5 4 3 3 2 2 2 4 6 7 8 9 9 9 9 8 9 10 11 12 13 14 12 13 12 11 12 12 13 12 13 14 13 15 17 12 9 10 8 8 9 10 9 8 8 7 7 8 8 7 8 9 12 15 16 18 18 19 22 19 18 20 18
11 11 11 11 11 11 11 10 10 9 8 7 7 7 6 6 6 6 6 5 5 5 5 4 4 4 3 2 1 4 7 5 4 6 5 7 7 8 8 8 8 9 10 11 11 13 14 13 12 12 13 13 13 14 14 14 14 11 14 17 14 10 8 9 7 7 9 9 9 7 7 9 8 8 7 7 10 11 12 14 15 16 19 22 19 17 17 17
9 9 9 9 9 9 9 9 8 8 7 7 6 6 6 5 5 5 5 5 4 4 3 3 3 2 2 1 3 7 8 3 7 7 5 6 6 8 8 8 8 9 10 10 10 11 11 10 11 12 12 13 13 14 14 14 15 14 13 13 15 14 11 9 8 8 9 8 8 7 7 8 7 7 7 7 8 8 8 11 14 17 21 20 17 15 13 13
6 6 6 6 6 7 7 7 7 7 6 6 6 6 5 5 4 4 4 4 4 3 2 2 1 1 1 2 4 6 5 1 7 6 5 5 5 7 7 8 10 10 10 10 10 9 9 10 11 11 11 12 13 13 13 14 14 15 14 11 11 12 12 11 10 9 9 9 9 8 8 7 6 5 6 7 6 9 11 11 13 18 21 19 18 16 12 12
4 4 4 5 5 5 6 6 6 6 6 6 6 5 5 4 3 3 3 3 3 2 1 1 1 1 3 4 5 5 2 6 7 7 6 5 6 6 7 8 10 10 11 10 9 7 8 10 10 10 11 11 12 12 12 13 14 16 16 12 11 11 12 11 11 10 9 10 9 9 8 7 7 6 5 7 6 10 14 13 14 17 18 18 17 15 11 12
3 3 3 4 4 5 5 5 6 6 6 6 6 5 5 4 3 3 3 3 2 1 1 2 3 4 5 6 7 6 6 11 8 7 5 5 5 6 8 9 10 11 11 10 10 9 8 9 9 10 11 9 10 12 12 12 13 14 15 13 12 11 11 10 10 10 10 10 9 8 8 7 8 7 5 6 6 8 13 15 15 15 16 17 17 14 12 13
3 3 3 4 4 5 5 5 6 6 6 6 6 5 5 4 4 3 3 2 2 1 2 4 5 6 7 8 9 3 9 10 6 6 4 3 4 6 8 9 10 11 10 9 11 10 8 8 9 10 10 8 10 12 12 12 9 9 11 11 12 12 11 11 10 10 10 10 9 8 8 7 8 9 7 7 7 8 11 14 15 15 15 15 16 15 14 15
5 3 3 4 5 6 6 5 6 6 6 6 6 5 5 4 4 3 2 2 1 1 2 5 7 7 8 9 8 2 9 6 6 6 4 4 4 6 9 10 12 13 8 9 11 11 9 9 10 10 7 7 8 10 12 13 9 7 9 10 12 13 12 12 11 11 11 12 11 9 8 7 9 9 7 9 9 9 11 13 15 17 16 14 13 14 14 15
6 4 3 3 5 6 7 6 7 6 6 6 6 6 5 4 4 3 3 1 1 1 3 6 7 7 7 7 4 4 7 6 6 6 5 5 5 5 8 10 12 13 9 7 7 11 12 10 11 9 6 7 6 7 10 12 10 9 9 11 11 11 13 12 11 11 12 12 11 10 10 10 12 10 8 10 10 10 10 11 13 15 16 15 14 14 13 15
5 5 4 2 3 5 7 8 8 8 7 6 6 6 5 5 4 4 3 1 2 2 5 7 8 7 6 3 5 4 5 6 6 6 6 6 6 5 5 6 8 10 12 9 7 11 11 10 13 9 6 7 6 8 10 8 9 10 10 11 10 11 14 12 10 11 13 11 10 12 13 13 15 11 7 10 11 11 10 11 11 12 14 16 15 16 15 15
5 4 4 3 2 2 4 6 8 9 8 8 7 6 6 6 5 5 3 2 3 4 7 8 8 8 7 3 5 4 4 5 6 6 7 7 7 6 5 5 6 7 9 10 10 12 10 10 13 8 7 9 6 9 11 8 8 10 10 11 12 14 13 12 10 11 14 11 10 13 14 13 15 12 8 9 10 12 11 11 12 12 13 14 14 15 15 15
4 4 3 3 2 1 2 3 5 7 9 9 9 8 7 7 6 6 4 3 4 6 9 10 8 7 5 2 4 4 4 4 5 7 8 9 9 6 5 6 6 6 5 6 8 10 10 11 8 4 6 8 6 7 9 9 10 10 11 11 13 13 10 12 10 11 13 11 12 15 14 11 12 12 9 9 10 12 13 12 12 13 14 15 15 15 15 16
4 3 3 3 2 2 1 2 3 4 6 7 9 10 9 8 7 6 5 4 4 8 10 10 9 6 5 3 6 5 4 3 4 7 8 11 11 4 5 7 6 6 5 5 7 8 10 10 5 5 7 8 8 8 10 11 11 11 13 11 11 11 11 10 10 11 12 10 12 16 15 10 10 11 9 10 10 12 13 13 12 13 13 15 16 15 15 17
3 3 3 3 3 3 2 2 3 3 4 5 7 8 9 9 8 7 6 5 5 9 12 10 9 8 5 5 6 4 3 4 5 7 7 10 11 8 7 7 5 5 4 4 6 6 7 6 5 6 7 8 9 10 11 11 11 11 12 9 9 12 8 8 11 13 12 12 14 15 15 12 9 9 7 9 11 12 13 13 12 13 13 14 15 14 16 18
3 4 4 3 3 4 3 3 4 4 4 4 4 4 6 8 10 9 7 6 6 10 11 10 9 6 4 5 4 5 7 7 5 6 6 7 10 10 8 5 4 4 3 2 3 4 5 5 7 7 8 8 9 12 11 9 8 11 11 8 9 11 9 6 10 12 12 13 16 14 13 15 11 8 7 8 11 12 13 13 13 13 13 15 15 15 18 20
4 4 4 4 4 4 4 4 4 4 4 3 2 2 2 3 6 8 9 7 8 12 7 8 11 5 2 6 8 9 10 7 5 6 6 6 7 9 9 7 7 5 4 5 5 4 6 6 8 9 11 10 10 11 6 5 6 6 7 10 10 11 11 8 8 7 8 9 14 13 12 16 16 12 10 10 12 12 12 13 14 14 14 15 14 15 18 19
4 5 5 5 5 4 4 4 4 4 3 2 2 3 2 1 2 4 10 11 13 16 8 7 12 5 1 7 8 8 8 6 6 6 7 6 6 6 7 7 7 7 8 8 5 6 8 9 11 10 7 5 7 10 6 5 6 6 4 8 10 10 13 12 7 6 7 8 12 14 13 14 14 12 10 11 13 13 14 14 15 15 15 15 14 15 16 18
5 5 5 5 5 5 4 3 3 3 2 1 3 3 1 1 3 4 10 10 12 17 13 10 15 11 7 9 9 6 5 4 6 7 9 8 6 7 8 7 9 10 10 8 6 7 8 10 12 9 6 5 7 13 12 7 6 8 9 10 11 11 11 10 8 6 7 10 12 13 14 14 14 14 12 11 13 14 15 16 16 16 16 15 15 15 15 17
6 5 5 5 4 4 4 4 3 1 1 2 3 3 1 4 7 7 8 8 8 15 15 14 17 15 11 12 10 8 7 6 8 10 11 10 8 10 9 7 10 11 10 10 8 8 10 13 12 8 12 13 11 13 12 8 8 10 12 13 12 13 10 7 7 6 6 9 13 12 13 14 14 15 13 12 13 13 15 16 16 17 17 16 15 15 15 16
6 5 5 4 4 4 3 3 2 1 1 3 3 3 2 4 5 6 7 9 8 13 15 14 15 12 10 11 9 8 9 8 10 11 11 11 11 11 9 9 11 10 10 11 12 11 9 9 9 10 14 13 9 11 9 9 11 12 13 14 13 14 13 8 6 7 8 9 12 12 11 12 13 14 14 14 13 12 13 14 15 17 17 16 16 15 15 15
5 6 5 5 5 4 3 3 2 1 1 2 3 3 2 3 3 4 7 9 7 11 13 13 13 11 10 12 10 9 8 8 11 13 12 11 11 11 10 10 11 10 12 11 13 14 9 2 7 7 10 8 7 9 9 11 12 12 14 14 13 13 12 10 6 6 8 11 12 12 13 16 18 19 18 16 15 13 12 13 15 17 18 18 17 16 16 15
5 6 6 5 5 5 5 4 3 2 2 2 3 3 3 2 2 3 7 8 8 10 13 14 14 13 14 14 11 8 7 9 9 11 12 11 11 10 8 10 11 11 12 10 11 14 9 7 9 7 6 8 9 10 11 12 13 13 14 14 14 12 10 10 8 6 10 13 11 11 12 15 16 18 17 14 14 14 13 14 15 16 17 18 18 18 18 18
5 6 6 6 6 6 6 4 4 4 2 2 3 3 3 2 2 4 7 7 9 11 13 14 13 14 15 14 12 8 8 12 11 10 12 12 13 11 7 9 10 9 7 8 11 12 5 5 9 7 7 9 10 12 12 11 13 13 11 11 12 11 10 11 11 11 13 12 8 9 11 11 11 11 11 12 12 14 14 13 14 15 15 16 16 16 16 17
5 5 6 6 6 7 7 5 6 4 2 3 4 4 3 2 3 6 5 6 9 12 12 12 12 13 12 11 13 10 7 12 13 11 13 13 12 11 9 9 10 9 6 7 10 10 6 4 5 8 9 10 11 13 11 11 13 10 5 6 9 12 12 12 13 14 15 13 8 10 13 14 13 10 9 11 12 13 13 13 12 13 13 14 14 13 14 16
6 6 6 6 6 7 7 7 7 5 4 5 6 5 4 3 4 7 4 5 7 12 10 13 14 13 11 11 15 12 6 9 11 11 13 13 11 10 9 8 9 8 8 10 8 5 7 7 7 10 11 11 13 12 10 11 13 9 4 6 10 11 12 12 14 15 14 13 13 13 13 13 14 12 9 11 13 14 14 14 12 11 11 11 12 14 16 20
7 7 7 7 7 7 7 7 7 7 7 7 6 7 5 4 4 6 6 4 6 11 10 13 15 13 11 11 14 14 9 8 8 9 13 12 12 14 10 8 8 6 7 11 8 3 6 8 8 10 12 13 12 8 6 9 11 9 6 8 11 11 12 13 13 15 13 10 13 15 12 10 10 12 12 11 12 15 13 12 10 9 8 9 13 18 19 20
9 9 8 8 8 7 7 8 8 8 8 7 7 7 6 5 5 6 7 4 7 11 10 11 13 13 14 14 14 14 13 11 7 8 12 10 12 14 11 9 8 7 8 11 10 7 6 8 9 10 12 13 11 7 7 9 10 9 8 10 13 12 13 13 13 15 12 10 15 15 13 11 9 11 12 11 8 7 10 11 9 7 6 7 12 17 19 21
11 10 10 9 9 7 8 8 8 8 8 7 7 7 6 6 7 8 6 4 7 11 11 11 11 14 16 16 14 14 14 13 9 11 14 11 12 13 11 10 10 10 11 12 13 10 7 9 10 10 11 11 11 11 11 12 12 11 11 12 12 12 11 12 14 12 9 9 12 12 12 12 11 10 7 8 7 6 9 8 7 7 7 8 10 12 15 18
13 12 11 10 9 8 8 8 7 8 8 8 7 6 6 7 10 12 8 5 7 10 12 12 12 14 16 16 14 14 14 13 12 13 14 13 14 14 12 12 10 10 12 11 10 10 11 12 11 8 9 9 11 13 12 12 13 13 14 13 11 9 9 10 9 8 8 9 7 6 7 10 12 9 4 8 8 7 7 8 8 8 9 12 12 11 13 13
15 14 13 12 10 9 9 8 8 8 7 8 7 7 7 9 10 11 10 7 6 8 10 11 12 13 15 16 14 14 14 13 13 14 14 13 13 13 12 11 8 8 8 7 8 9 11 12 11 9 9 9 10 12 12 10 11 14 15 13 10 7 6 7 7 7 9 8 6 4 5 9 12 6 7 9 7 5 7 10 12 11 10 11 12 12 12 12
17 16 15 13 11 10 10 9 8 8 8 8 7 8 10 12 11 9 9 10 7 7 9 10 12 13 14 15 13 14 13 12 13 13 13 13 13 12 12 10 10 9 7 7 10 10 9 8 11 9 7 7 9 12 12 9 10 13 13 13 13 10 8 7 6 6 7 4 5 6 4 9 11 5 8 8 7 6 6 9 13 14 12 11 10 10 11 9
18 18 17 15 13 11 10 10 9 8 8 8 8 11 14 14 13 11 11 11 8 9 10 11 13 14 15 14 12 14 14 11 13 13 13 14 14 13 11 9 8 9 9 9 7 8 11 8 8 9 6 5 7 9 10 11 11 11 12 15 14 12 11 10 10 9 8 7 6 9 8 9 7 5 8 8 7 7 6 8 11 13 14 13 10 10 8 5
18 18 18 17 15 13 11 11 10 9 9 8 9 15 17 15 12 9 8 10 9 10 11 12 14 15 15 13 12 14 14 11 11 13 13 13 11 11 10 8 7 6 8 10 6 6 11 7 5 7 8 8 8 7 8 11 11 8 10 14 13 11 11 12 12 9 8 8 9 12 14 11 6 7 11 10 8 8 7 8 9 10 12 12 10 9 7 3
17 18 17 18 18 14 12 11 11 11 10 9 13 17 15 14 12 9 6 8 9 10 11 12 13 14 14 14 13 14 15 13 12 13 13 11 10 10 10 8 9 8 7 9 9 7 10 10 6 8 9 9 9 10 10 12 13 11 10 9 10 11 11 11 10 7 7 8 9 13 15 14 10 8 11 12 10 10 9 9 10 11 11 11 10 10 7 4
16 16 16 18 19 15 13 12 12 12 11 11 16 18 15 13 11 10 9 9 10 11 12 13 12 11 12 14 13 13 14 14 13 13 13 12 10 10 10 8 9 9 7 7 9 8 7 12 12 11 10 8 8 11 13 14 15 16 15 10 9 10 10 10 9 7 8 7 7 11 14 14 14 9 11 13 13 12 11 10 10 10 11 11 10 10 9 7
15 13 14 18 19 15 14 13 13 13 13 15 17 17 16 15 12 9 10 10 10 11 13 15 13 12 13 13 13 12 13 13 13 13 13 12 9 8 9 9 7 7 7 7 8 8 6 10 13 9 8 8 8 11 15 16 15 16 17 16 15 14 12 12 11 9 9 8 7 10 11 10 9 6 8 12 14 13 12 11 10 10 11 11 9 10 9 9
14 10 13 19 18 14 14 14 13 14 15 18 18 15 13 13 12 11 11 11 10 11 12 13 13 13 14 14 13 13 12 12 12 13 11 10 9 7 9 10 7 5 6 7 8 9 8 10 13 11 9 10 10 11 13 13 12 13 15 15 16 16 14 14 15 15 14 10 7 7 9 8 5 3 4 8 12 14 12 11 13 13 14 12 10 10 10 10
13 10 14 20 19 15 13 14 15 16 17 18 18 16 13 11 10 9 11 12 12 11 11 10 10 12 13 14 14 14 13 12 12 13 12 11 10 9 9 11 11 7 5 6 8 10 10 10 13 14 14 14 12 9 9 10 9 10 11 12 13 13 14 13 12 15 17 15 11 9 9 7 4 4 5 7 10 13 12 12 14 15 16 13 11 11 11 12
12 10 15 19 17 15 14 15 16 16 17 18 16 14 15 15 12 9 9 11 11 11 11 10 10 10 11 11 11 12 13 12 13 12 12 12 10 8 8 9 11 10 8 8 8 10 11 10 12 15 16 18 16 12 12 13 13 15 16 16 15 14 15 14 12 12 14 16 15 14 12 6 2 4 5 7 9 11 11 12 14 15 17 14 14 14 14 14
9 9 16 21 19 15 14 16 17 17 18 17 14 13 14 14 12 10 10 10 10 10 10 10 10 10 11 11 10 11 11 12 13 11 10 9 7 10 10 9 10 9 8 9 9 11 13 11 13 17 17 20 20 17 16 14 14 19 21 20 20 19 19 19 18 16 16 17 15 12 10 6 4 4 5 9 11 12 13 14 14 17 18 15 16 17 16 16
12 11 13 18 19 16 15 15 16 17 18 16 14 14 13 11 11 10 10 9 10 9 9 10 9 9 10 10 10 11 10 10 11 10 10 7 7 13 15 14 12 7 7 11 8 7 10 10 12 15 13 13 15 15 16 15 13 16 18 20 21 19 18 18 19 17 18 21 18 14 12 7 3 4 6 8 11 12 13 14 15 18 19 18 19 19 18 18
11 11 10 14 17 16 16 16 16 16 15 15 15 15 13 12 12 13 11 9 9 9 8 8 8 8 9 8 9 11 11 10 10 9 9 8 9 13 15 14 11 7 11 16 13 7 8 10 11 12 10 9 9 10 10 9 10 11 13 16 18 16 15 16 18 18 19 21 21 19 17 9 3 3 5 6 9 11 12 14 15 16 19 20 21 20 20 20
5 6 7 9 12 13 14 16 17 16 13 12 13 13 14 13 11 13 13 11 10 10 10 9 8 8 9 10 10 11 12 12 12 11 10 9 9 11 12 11 9 11 16 17 14 10 10 12 15 16 16 16 16 16 14 13 14 14 14 15 15 15 16 16 17 19 20 20 22 23 21 16 11 9 8 8 9 11 13 14 14 15 18 21 21 21 21 21
4 8 10 8 7 8 10 11 12 13 13 13 13 12 13 14 10 9 11 11 11 10 10 11 10 10 10 11 11 12 12 13 13 13 12 11 9 9 11 10 9 14 17 13 12 11 12 14 16 17 21 22 21 23 21 20 21 21 20 20 20 20 21 20 20 21 20 20 22 22 19 19 17 13 10 10 12 13 14 15 14 14 17 22 23 23 23 23
3 9 13 13 8 6 8 9 9 7 9 12 13 12 12 13 12 10 8 9 10 9 9 10 10 11 11 11 11 12 13 13 14 14 12 12 11 10 11 10 9 14 15 10 9 10 12 16 17 17 20 21 21 22 22 22 23 23 23 24 24 24 26 26 25 26 23 23 25 23 20 21 19 15 13 12 13 14 15 14 14 14 16 20 23 24 22 20
4 6 10 12 9 7 11 13 11 7 6 8 10 10 10 11 12 11 7 6 8 8 8 9 10 10 10 10 10 12 13 14 15 14 13 13 13 11 11 10 9 10 11 10 10 9 10 14 15 16 19 21 21 22 22 22 24 25 25 26 26 27 28 28 29 29 28 29 30 29 27 29 25 20 18 15 13 13 13 14 15 16 16 17 19 19 17 16
2 2 5 8 6 8 12 12 10 8 8 9 8 7 8 8 9 9 7 6 8 7 7 8 9 9 8 9 9 10 14 17 16 15 14 14 12 11 13 13 12 10 9 9 11 10 11 13 13 14 18 20 20 21 22 23 24 26 27 27 27 28 28 28 29 29 29 30 29 28 29 30 26 21 20 21 20 20 19 18 18 18 19 19 19 19 17 17
3 2 1 3 2 5 6 6 6 6 8 9 7 6 5 6 7 8 7 8 9 9 7 7 9 10 8 8 9 11 16 19 19 17 16 13 11 10 10 11 10 11 11 11 12 12 12 13 14 15 19 22 20 19 22 23 24 27 29 28 28 28 28 29 28 27 27 27 27 26 28 28 23 20 21 21 22 23 23 23 22 22 22 22 21 20 18 18
5 4 2 2 0 3 3 3 4 5 7 8 7 4 3 4 6 7 7 8 8 9 11 11 11 12 10 9 13 15 17 18 19 20 18 16 14 12 11 11 10 11 12 12 14 15 14 15 17 17 20 22 20 19 21 21 20 21 22 24 25 27 29 30 29 28 27 26 27 27 28 26 20 18 19 18 18 20 21 21 21 21 21 21 21 20 19 19
Wind_Direction
269 268 268 269 269 270 270 270 270 273 279 283 288 293 298 302 301 299 296 295 294 290 287 284 282 279 275 269 263 258 256 254 252 252 249 247 246 245 242 239 236 233 230 225 225 221 220 223 218 221 216 218 221 205 226 230 216 223 229 235 241 244 247 248 244 248 251 232 250 331 322 302 282 275 268 255 235 217 223 224 211 210 204 198 211 209 191 183
268 268 268 267 267 268 268 268 267 268 273 278 285 292 299 301 299 298 297 298 295 291 286 281 280 276 275 269 265 261 257 255 252 250 245 242 240 239 238 235 230 226 225 218 217 214 213 220 217 215 206 209 224 214 225 232 221 219 224 236 240 243 250 246 249 262 260 255 278 301 302 307 282 272 260 257 244 223 220 212 203 205 205 208 214 204 190 189
269 268 267 266 266 265 265 265 263 264 267 274 282 291 297 297 299 298 299 300 295 292 282 277 276 274 277 271 271 265 261 262 256 250 242 240 237 235 234 228 224 221 215 208 206 202 196 207 218 210 197 204 216 218 227 233 227 220 223 238 241 244 257 262 258 258 259 264 275 277 284 298 282 272 256 251 240 223 217 210 209 209 217 224 221 205 196 191
270 268 266 266 264 263 262 260 258 259 262 269 279 288 293 295 300 298 301 302 296 292 282 280 276 278 281 273 272 256 327 322 266 261 245 240 237 231 229 220 214 209 204 203 199 196 192 198 211 201 193 210 216 217 225 226 224 223 227 234 240 252 260 261 265 256 251 254 254 265 279 283 282 278 257 246 238 224 215 213 215 212 223 234 222 200 196 191
270 267 266 265 262 260 256 253 252 253 257 265 276 283 287 292 298 300 305 301 297 294 286 284 279 287 281 256 162 119 71 59 257 278 261 239 234 226 224 212 201 194 195 196 194 199 199 196 201 194 197 215 219 219 222 224 227 228 233 234 241 263 265 254 258 250 245 245 248 260 274 274 280 283 257 240 238 225 219 217 213 212 217 226 217 196 192 188
270 267 266 263 259 254 248 245 244 248 254 262 272 278 283 289 296 302 303 299 300 294 284 280 272 285 261 190 134 140 102 85 255 277 268 241 229 221 215 202 191 184 184 181 189 201 197 192 196 197 207 216 218 226 226 222 227 232 240 242 242 252 256 252 250 251 254 245 243 249 267 278 274 274 248 232 235 206 202 201 197 209 206 207 212 201 199 192
274 269 265 258 250 243 238 236 238 245 251 258 268 273 279 284 292 299 300 304 304 291 276 266 243 251 205 129 135 153 132 249 260 270 266 244 227 215 204 193 183 176 173 171 180 191 188 189 196 201 213 220 223 229 226 217 224 234 240 244 242 245 249 253 249 252 258 240 237 247 262 271 253 263 237 215 218 193 189 179 183 210 206 202 210 200 202 199
286 271 260 248 239 234 232 233 236 244 247 256 265 268 274 276 283 291 295 304 307 307 257 203 180 175 130 129 127 120 185 270 266 262 260 238 224 206 191 186 176 170 162 161 171 183 189 191 197 207 215 227 230 223 221 222 232 239 237 241 246 249 250 251 248 246 249 236 237 248 250 251 237 244 228 202 210 204 199 190 192 215 213 202 202 192 195 195
309 276 254 237 234 229 233 237 238 243 245 253 259 264 269 268 274 279 287 295 308 319 205 166 161 154 128 129 112 102 245 260 260 248 243 229 215 193 183 174 171 164 153 163 177 177 184 196 207 216 217 231 237 222 223 232 238 235 232 242 246 250 251 244 245 244 241 231 231 238 233 234 225 212 200 189 198 194 191 197 200 214 215 196 188 183 187 188
341 297 258 238 234 229 233 237 238 241 242 248 252 256 261 259 262 262 277 290 296 293 191 165 160 151 138 127 98 73 251 247 240 228 216 207 187 181 173 163 167 154 149 180 180 169 177 200 212 211 209 234 241 222 219 229 243 236 227 241 244 245 247 239 242 238 228 222 217 221 221 219 205 197 198 188 176 162 170 185 186 192 201 194 183 177 179 184
356 333 283 248 239 234 235 235 238 239 240 244 246 249 252 251 255 254 271 286 285 264 187 171 165 156 158 142 106 290 250 219 215 211 171 161 158 173 165 162 165 144 152 194 175 172 187 200 203 195 202 232 233 224 225 228 244 248 233 248 249 242 242 238 239 228 216 217 211 209 214 204 199 200 194 180 165 152 162 178 186 188 189 193 188 176 176 181
355 351 327 270 248 241 237 236 239 238 240 242 242 247 248 247 249 248 260 257 224 223 192 174 169 166 166 169 164 230 225 197 198 183 150 140 139 166 165 167 167 147 155 189 185 191 196 200 188 182 232 236 217 231 231 226 237 245 240 250 247 236 235 231 227 216 209 210 201 203 213 202 203 201 172 174 173 160 164 175 193 199 188 186 186 179 179 183
344 349 346 317 268 247 240 237 236 238 239 238 240 244 243 244 244 242 247 225 189 182 193 178 175 172 139 173 223 200 192 187 177 161 142 131 132 150 153 161 170 157 156 170 211 206 191 189 175 179 247 227 222 243 225 222 238 236 237 245 241 231 223 210 205 203 203 204 189 198 218 207 198 196 168 176 180 171 176 175 184 198 193 190 186 183 184 182
329 338 340 336 314 258 244 238 236 236 235 235 237 237 239 240 235 238 236 216 192 172 194 181 173 175 144 168 220 187 185 172 154 139 129 130 134 136 139 145 156 160 159 170 197 197 181 173 169 183 222 205 234 249 227 233 235 224 229 231 234 235 206 181 190 198 201 205 192 204 230 222 193 186 177 180 182 180 189 186 187 192 188 199 200 191 191 183
316 326 331 331 318 281 247 235 233 232 233 233 233 233 233 233 232 236 228 215 194 176 189 182 175 174 149 220 236 194 190 154 132 125 126 129 123 127 146 147 154 158 161 169 169 174 171 156 154 200 226 218 237 232 223 227 219 219 226 217 230 233 177 162 192 199 205 204 193 208 231 229 188 177 181 187 191 190 195 193 197 198 191 210 216 201 199 192
312 314 316 316 315 307 266 229 227 225 229 228 231 233 230 229 228 229 223 211 188 181 185 181 179 152 120 226 239 210 187 158 135 129 133 124 117 156 181 151 164 160 150 153 140 154 167 158 179 233 226 226 227 226 231 220 208 217 227 222 223 208 163 168 201 201 206 195 189 209 232 230 168 167 185 193 201 198 203 202 201 210 210 223 228 214 206 200
318 313 311 307 311 312 292 242 228 223 226 224 229 233 230 229 225 225 224 204 183 184 187 184 179 156 148 221 236 223 194 184 166 142 143 133 136 184 188 145 163 161 139 137 132 150 168 171 216 222 210 224 232 238 238 223 209 208 222 236 226 216 195 179 188 194 197 197 202 210 233 237 166 164 191 194 206 204 208 210 204 214 217 222 228 227 222 213
344 333 323 315 311 306 290 266 249 240 241 235 233 230 232 232 224 222 217 204 187 175 183 194 177 166 216 220 196 205 205 201 189 156 154 145 146 164 160 146 182 171 143 156 151 165 187 205 230 230 223 228 227 225 230 235 230 210 213 229 220 230 247 198 169 183 191 211 226 215 225 237 208 198 217 205 212 212 212 213 210 215 218 218 221 229 234 224
1 352 342 338 329 316 298 282 274 271 265 256 242 204 199 225 225 225 217 207 179 161 178 220 186 162 238 189 177 200 206 203 192 171 169 157 146 154 158 172 195 188 186 207 207 200 209 218 226 230 227 218 210 220 250 308 292 255 218 225 220 215 225 203 146 162 190 215 233 220 221 238 233 231 236 225 220 218 217 213 212 217 219 222 222 224 231 230
345 344 343 351 350 346 332 304 295 290 277 265 219 171 134 35 16 266 229 208 184 172 180 222 195 178 177 181 192 205 201 199 182 179 194 181 152 159 175 181 192 204 213 214 212 213 221 228 228 232 230 204 202 227 273 320 302 300 256 238 238 222 219 212 175 173 211 230 234 225 227 243 241 233 233 228 224 225 223 215 214 216 217 221 222 221 227 237
319 324 329 339 352 1 1 346 325 302 262 217 193 165 131 215 174 242 234 213 206 199 192 201 199 195 192 192 200 193 181 191 181 187 202 192 166 182 200 197 201 218 221 208 212 219 224 233 233 238 241 222 214 228 246 274 269 260 255 252 245 234 233 222 196 185 209 236 244 232 232 245 243 236 236 231 229 231 225 220 218 217 217 218 220 220 224 237
301 308 312 316 335 350 1 3 353 335 224 174 173 158 181 227 207 233 229 197 220 221 208 208 202 197 203 206 201 181 172 190 191 194 202 192 176 187 204 214 216 224 214 202 221 227 230 240 231 228 241 239 238 237 242 260 259 247 245 250 245 235 228 197 180 197 215 237 249 241 232 240 243 240 234 225 231 235 227 223 220 216 215 215 217 216 217 230
292 294 296 300 310 319 337 349 355 6 193 169 165 160 185 236 234 254 219 182 215 230 216 211 203 199 209 210 203 174 167 193 194 196 204 189 180 190 207 226 227 225 214 211 227 230 237 238 200 208 242 246 246 245 242 246 247 244 240 243 244 237 231 217 198 217 232 240 253 260 252 246 247 242 232 226 232 233 223 220 216 214 213 213 216 216 218 223
290 285 285 287 290 296 300 307 318 314 228 180 181 176 180 222 236 251 207 180 212 228 212 204 195 196 201 201 203 174 170 209 203 204 210 183 179 200 215 228 229 228 228 223 228 238 251 214 169 211 248 246 239 236 236 244 242 237 238 243 246 244 246 248 224 204 233 245 247 258 259 250 245 240 233 228 225 223 219 217 215 211 210 210 211 210 216 219
293 285 284 281 279 282 277 278 285 266 238 211 204 187 188 212 232 222 192 182 200 206 206 202 188 190 201 203 198 176 198 227 203 199 205 181 185 210 222 224 224 230 230 215 220 241 244 216 222 249 255 238 239 237 234 241 247 241 234 239 250 256 253 247 234 220 245 249 230 232 253 255 246 236 231 223 213 218 222 217 215 211 210 212 211 209 214 218
295 288 285 280 276 274 270 271 266 254 259 255 227 204 206 215 240 200 179 196 204 192 199 200 188 196 206 203 190 182 217 217 194 194 201 191 195 213 220 213 223 240 226 206 230 248 242 210 230 236 235 235 237 243 237 231 247 253 235 225 241 253 245 240 242 241 252 256 226 221 252 267 254 230 222 217 212 219 219 212 213 211 212 216 218 220 222 226
293 290 287 281 277 272 269 268 256 244 269 260 225 214 223 226 224 187 181 229 203 179 186 191 197 207 202 193 187 191 211 199 199 210 204 196 194 207 216 207 224 239 219 216 236 239 222 213 224 217 227 237 237 244 236 225 243 254 237 216 233 245 238 235 242 243 253 263 248 231 244 260 261 242 215 209 212 217 211 207 210 210 212 215 215 220 222 226
287 287 285 280 277 272 267 265 254 240 237 236 221 221 233 239 211 186 215 261 176 165 182 191 201 204 191 193 193 196 211 197 204 207 197 200 193 194 218 226 234 228 203 219 230 214 213 225 230 223 226 233 240 245 225 219 241 258 267 240 239 244 237 234 242 246 253 260 255 243 238 249 259 249 216 198 213 224 214 204 205 208 212 215 213 215 222 227
282 280 280 279 277 272 269 266 257 249 242 236 229 229 236 240 211 202 244 271 171 178 193 196 203 196 184 195 197 201 213 204 203 189 187 205 194 188 213 230 232 224 201 220 237 241 219 221 222 220 226 234 241 247 211 212 238 257 272 250 242 244 239 236 242 249 252 250 253 250 239 242 256 248 222 203 225 238 221 199 197 206 209 219 228 227 231 236
279 277 275 274 274 271 271 267 257 253 248 239 234 233 238 236 220 226 241 232 191 190 190 200 205 193 186 193 195 200 204 198 196 180 184 202 194 193 214 213 210 233 227 225 239 245 220 218 222 221 228 239 250 260 237 229 244 259 265 248 240 240 241 242 246 252 254 243 245 247 235 234 250 254 232 206 212 221 193 184 193 204 205 226 240 237 238 242
278 275 271 268 270 267 266 266 258 251 242 235 234 229 235 241 235 237 232 216 209 190 183 196 192 183 189 195 193 195 200 199 196 184 183 192 195 199 214 211 212 232 230 226 234 236 224 223 224 222 228 238 251 257 247 239 243 249 249 241 237 237 238 241 241 243 252 253 254 248 232 230 244 261 239 181 172 173 172 188 203 206 216 228 233 232 235 240
278 274 270 265 264 260 260 264 261 253 240 232 229 216 228 246 239 237 234 233 219 190 188 196 188 187 196 202 201 194 196 199 192 190 191 193 197 201 210 211 217 233 231 231 232 227 231 231 220 215 228 235 242 244 235 229 234 239 240 239 239 238 235 239 236 231 240 251 259 245 220 229 250 258 209 160 166 181 192 204 204 206 220 224 223 225 229 233
277 274 271 264 260 255 254 258 257 253 241 229 220 209 229 247 243 239 233 226 208 189 194 194 191 196 199 207 208 194 193 196 192 199 209 210 207 209 217 220 230 249 246 244 238 230 235 228 211 214 230 231 234 235 225 217 229 237 236 235 240 241 239 243 241 238 240 233 230 245 239 245 255 238 171 174 179 190 209 211 210 216 223 220 222 232 235 235
275 274 271 264 259 252 248 250 251 252 241 224 214 215 232 244 248 250 237 226 218 204 200 193 193 199 202 209 208 196 200 202 198 205 213 218 219 215 219 224 231 245 254 255 249 248 257 235 207 212 219 214 228 239 240 241 242 242 241 239 240 246 253 257 262 267 271 258 211 207 221 251 252 200 162 189 200 203 212 212 216 223 229 228 226 232 237 240
271 272 271 267 260 251 246 244 241 244 237 215 212 225 232 239 246 250 238 226 221 211 202 200 203 204 205 209 204 202 211 208 203 212 216 219 224 219 215 218 221 231 245 253 249 249 266 257 203 199 208 221 240 244 249 257 252 244 243 240 239 244 250 260 273 275 287 301 253 215 226 251 251 198 181 186 183 188 195 201 211 219 227 232 234 234 234 245
267 267 268 267 261 250 243 240 233 234 226 207 223 236 235 239 246 251 235 216 216 216 208 208 212 213 211 209 206 206 211 210 205 214 218 220 226 219 208 210 216 225 244 258 270 260 262 257 175 193 229 234 240 245 243 248 252 252 244 243 249 255 256 264 269 258 252 269 258 240 244 246 238 215 202 193 187 195 198 193 202 223 232 234 241 238 226 247
266 264 265 265 262 252 241 235 228 226 218 212 234 242 241 245 247 252 241 217 223 227 220 216 216 221 218 212 215 212 208 212 212 216 221 219 221 215 206 218 231 235 244 257 270 269 266 263 235 234 245 228 229 249 248 241 249 259 257 260 268 262 256 262 270 260 246 256 254 248 250 248 246 225 193 195 206 204 199 194 204 228 232 231 243 238 219 239
266 264 262 259 259 256 246 239 230 225 221 227 242 244 247 252 247 246 244 233 234 233 233 231 223 227 227 219 222 216 206 212 214 221 231 221 212 208 205 223 240 240 236 244 259 261 266 269 262 249 243 235 239 251 251 246 243 249 259 273 276 263 254 252 257 263 262 266 266 259 259 256 255 233 186 198 212 201 195 198 201 216 224 230 239 231 223 243
268 266 260 258 260 256 247 241 232 225 225 234 242 244 246 249 245 242 240 236 238 237 239 240 230 232 236 229 227 220 214 222 221 226 235 224 215 217 216 224 237 241 236 236 254 261 259 266 267 253 234 241 254 248 248 250 240 240 254 261 257 258 264 262 257 259 263 264 269 271 270 263 258 236 190 205 214 201 198 199 190 201 224 232 225 220 231 249
268 262 252 257 261 255 245 240 231 225 229 235 239 243 248 248 241 242 242 234 234 238 245 247 237 232 235 234 233 226 223 232 231 233 239 227 222 232 231 226 222 232 240 230 244 259 259 260 264 260 242 241 252 247 248 257 249 239 247 251 249 249 257 266 265 262 265 269 273 273 271 264 257 233 203 216 213 199 197 196 190 208 235 237 223 225 237 247
263 252 247 255 260 253 242 235 228 226 232 237 239 246 251 245 237 241 245 238 232 236 245 250 243 237 237 237 234 230 231 236 237 240 244 237 230 228 226 220 215 221 242 241 247 250 242 247 259 262 254 248 252 254 255 266 266 256 256 259 258 255 256 263 263 260 263 267 271 275 280 279 252 219 236 241 217 197 197 193 189 214 240 241 237 244 245 246
259 250 248 252 257 253 236 228 231 231 235 239 240 245 246 241 239 243 248 243 236 237 242 247 246 244 244 241 237 235 238 240 242 244 245 244 240 226 214 215 217 219 230 242 259 250 230 234 258 262 260 259 263 268 263 262 264 264 265 267 268 268 266 266 269 273 274 273 273 276 280 279 210 191 218 220 203 193 198 190 185 215 239 242 246 251 250 250
241 241 250 248 248 248 232 227 233 233 235 240 241 242 242 240 240 242 244 239 231 233 238 241 243 243 241 242 243 241 241 245 246 244 243 242 234 225 227 242 238 227 236 247 262 258 240 239 258 262 264 264 263 261 257 259 264 262 260 260 260 263 265 267 274 284 283 274 272 276 274 255 200 193 205 211 213 207 201 188 190 222 241 244 246 248 248 250
225 225 244 247 244 240 228 228 237 239 239 240 239 239 241 239 234 233 238 236 228 229 236 238 238 240 238 237 242 243 244 250 245 239 243 242 236 239 246 256 246 227 239 234 220 243 247 242 256 263 267 265 258 251 245 245 254 260 261 257 253 259 267 270 274 278 273 266 265 268 269 261 216 205 207 216 222 213 199 188 199 230 246 244 242 245 244 246
236 234 238 247 247 236 226 229 235 242 245 240 238 239 236 236 232 227 227 226 225 225 231 238 236 233 236 239 244 244 243 245 239 237 242 238 242 252 257 256 243 226 239 230 214 233 262 254 256 263 264 262 259 258 257 263 265 266 272 263 251 254 266 270 272 269 264 266 267 264 265 273 265 217 212 211 212 206 198 194 204 231 245 242 239 241 241 242
231 240 230 241 248 235 231 233 232 240 250 244 243 242 232 233 242 239 232 230 237 238 234 241 244 240 243 245 246 247 243 242 240 241 245 240 240 250 251 247 234 227 238 238 232 242 258 257 256 257 260 264 271 277 285 295 287 275 277 274 260 254 259 264 266 263 264 273 271 263 265 271 266 252 238 223 215 210 209 214 220 231 242 246 245 246 247 246
205 223 208 203 224 223 229 238 233 240 249 239 238 241 232 231 238 242 238 236 241 240 236 242 245 242 245 246 247 251 248 243 240 238 243 244 238 238 247 249 238 238 246 252 250 249 254 258 256 255 259 263 269 275 279 282 281 277 275 273 265 260 261 262 261 262 270 276 270 265 269 271 266 261 254 241 231 228 226 232 234 229 237 249 252 250 249 247
211 228 215 204 208 206 209 224 225 231 243 237 236 243 241 236 235 235 242 243 239 237 238 244 243 241 245 246 245 247 247 245 243 239 241 244 238 242 255 254 243 251 257 253 247 250 255 259 259 259 262 263 264 270 273 272 272 272 270 268 264 262 262 262 262 263 266 266 267 272 278 277 273 269 265 256 243 239 237 235 232 227 233 244 247 245 244 246
224 232 223 210 214 223 217 222 228 227 234 237 237 241 241 240 236 232 236 243 234 230 235 242 243 242 242 241 243 249 248 246 244 240 238 240 238 240 248 242 235 251 255 237 234 245 255 261 262 263 267 269 267 268 270 269 270 270 267 264 263 262 261 262 262 263 264 264 267 273 276 275 274 270 264 258 247 244 243 238 235 233 233 234 235 239 242 247
265 250 236 206 217 251 238 235 244 243 246 248 242 239 238 236 233 228 233 240 228 224 236 244 244 239 236 241 245 248 243 238 235 233 232 235 238 241 247 248 246 248 245 233 235 245 256 262 266 270 273 273 271 270 270 269 270 269 266 263 262 261 260 261 261 262 264 265 268 272 273 273 273 270 265 258 254 256 256 251 246 242 238 233 232 237 244 244
19 5 276 177 209 272 261 259 257 242 245 246 234 233 235 229 226 222 229 236 227 227 238 237 230 231 241 248 235 229 234 234 234 235 234 234 238 240 244 250 250 247 246 244 244 247 255 264 271 275 273 270 270 271 271 272 272 271 267 263 261 260 260 260 262 263 263 266 270 273 271 271 274 274 269 264 260 258 256 255 253 249 244 238 235 239 241 239
29 29 39 111 8 311 317 305 274 246 236 229 219 226 238 220 221 227 240 246 238 238 242 238 234 238 247 242 230 233 239 236 235 239 239 238 241 242 245 250 249 249 251 252 251 250 253 263 271 272 270 269 270 271 274 276 274 271 267 262 259 261 261 260 260 261 262 265 268 269 269 271 275 275 269 266 265 261 257 257 256 250 246 242 240 239 237 236
Height
3105 3105 3105 3105 3105 3105 3105 3105 3105 3105 3105 3104 3104 3103 3102 3102 3101 3101 3100 3100 3099 3099 3098 3098 3098 3098 3097 3097 3097 3097 3097 3097 3097 3097 3098 3098 3098 3099 3099 3100 3101 3102 3103 3104 3106 3107 3108 3109 3111 3112 3113 3114 3115 3117 3118 3117 3119 3120 3121 3121 3120 3119 3117 3116 3116 3116 3115 3116 3117 3116 3117 3117 3119 3119 3117 3117 3117 3119 3120 3121 3123 3123 3123 3120 3117 3121 3123 3123
3104 3104 3104 3103 3103 3103 3103 3103 3104 3104 3104 3103 3103 3102 3102 3101 3101 3100 3100 3099 3099 3098 3098 3097 3097 3097 3096 3096 3096 3096 3096 3096 3096 3096 3097 3097 3097 3097 3098 3099 3100 3101 3102 3103 3105 3106 3108 3109 3110 3111 3112 3114 3115 3116 3117 3116 3117 3118 3120 3119 3118 3117 3116 3115 3115 3115 3115 3116 3116 3116 3117 3117 3117 3117 3117 3116 3117 3118 3119 3120 3121 3121 3120 3117 3116 3120 3122 3122
3102 3102 3102 3102 3102 3102 3102 3102 3102 3102 3102 3102 3102 3101 3101 3100 3100 3100 3099 3099 3098 3098 3097 3097 3096 3096 3096 3096 3096 3095 3095 3095 3095 3095 3095 3096 3096 3096 3097 3098 3099 3100 3101 3102 3104 3105 3107 3109 3110 3111 3112 3114 3116 3116 3116 3116 3115 3117 3118 3117 3117 3116 3115 3115 3115 3115 3116 3115 3116 3117 3116 3116 3116 3115 3116 3116 3117 3117 3117 3119 3119 3119 3118 3116 3118 3120 3121 3122
3101 3101 3100 3100 3100 3101 3101 3101 3101 3101 3101 3101 3101 3101 3100 3100 3099 3099 3099 3098 3097 3097 3097 3096 3096 3096 3095 3095 3095 3095 3095 3095 3094 3094 3094 3095 3095 3095 3096 3097 3098 3099 3100 3101 3102 3104 3106 3108 3109 3110 3112 3114 3115 3115 3115 3115 3114 3116 3116 3115 3116 3115 3115 3115 3115 3115 3115 3115 3115 3116 3115 3116 3115 3114 3114 3115 3116 3116 3117 3118 3118 3119 3117 3114 3117 3120 3120 3120
3100 3099 3099 3099 3099 3099 3100 3100 3100 3100 3100 3100 3100 3100 3099 3099 3099 3098 3098 3098 3097 3096 3096 3096 3096 3095 3095 3095 3095 3095 3095 3096 3094 3093 3094 3094 3094 3094 3095 3096 3097 3098 3099 3100 3102 3103 3104 3106 3108 3110 3111 3113 3115 3114 3114 3114 3113 3114 3114 3114 3114 3114 3114 3114 3114 3114 3113 3113 3114 3115 3115 3115 3114 3114 3114 3114 3115 3115 3117 3117 3118 3119 3115 3112 3114 3116 3116 3116
3098 3098 3098 3098 3098 3098 3099 3099 3099 3099 3100 3099 3099 3099 3099 3099 3098 3098 3098 3097 3096 3096 3096 3095 3095 3095 3095 3095 3095 3095 3096 3096 3094 3093 3093 3093 3093 3093 3094 3095 3096 3097 3098 3099 3101 3103 3104 3106 3108 3109 3111 3112 3114 3113 3113 3114 3112 3113 3113 3113 3113 3113 3113 3113 3113 3112 3111 3112 3114 3114 3114 3113 3114 3114 3113 3114 3114 3115 3116 3116 3118 3116 3111 3111 3112 3113 3113 3114
3097 3097 3097 3097 3097 3098 3098 3098 3099 3099 3099 3099 3099 3098 3098 3098 3098 3098 3097 3097 3096 3095 3095 3095 3095 3095 3095 3095 3095 3095 3095 3095 3093 3093 3092 3092 3092 3093 3093 3094 3095 3096 3097 3099 3101 3103 3104 3106 3108 3110 3111 3112 3112 3113 3112 3112 3111 3111 3112 3112 3112 3111 3111 3111 3111 3111 3111 3112 3113 3113 3113 3113 3114 3113 3112 3113 3113 3113 3114 3114 3115 3111 3108 3111 3113 3114 3115 3115
3097 3096 3096 3097 3097 3097 3097 3098 3098 3098 3098 3098 3098 3098 3098 3097 3097 3097 3097 3096 3096 3095 3095 3095 3095 3095 3095 3095 3095 3096 3096 3094 3093 3093 3092 3092 3092 3092 3093 3094 3095 3096 3097 3099 3102 3104 3105 3106 3108 3110 3111 3112 3111 3111 3111 3110 3110 3110 3110 3111 3111 3110 3110 3110 3110 3110 3110 3111 3112 3112 3112 3113 3113 3112 3112 3113 3112 3111 3113 3114 3113 3109 3108 3111 3113 3114 3115 3116
3096 3096 3096 3096 3096 3097 3097 3097 3097 3097 3097 3097 3097 3097 3097 3097 3097 3097 3096 3096 3095 3095 3095 3095 3095 3095 3095 3095 3095 3096 3096 3094 3093 3092 3092 3092 3092 3092 3093 3093 3094 3095 3097 3099 3101 3103 3105 3107 3109 3109 3110 3110 3110 3110 3110 3109 3109 3108 3109 3110 3109 3109 3109 3109 3109 3109 3110 3110 3111 3111 3112 3112 3112 3111 3112 3113 3111 3110 3112 3113 3112 3110 3110 3111 3112 3113 3114 3115
3096 3096 3096 3096 3096 3096 3096 3096 3096 3096 3096 3096 3096 3096 3096 3096 3096 3096 3096 3095 3095 3095 3095 3094 3095 3095 3095 3096 3096 3097 3096 3094 3093 3092 3092 3092 3092 3092 3092 3093 3094 3095 3097 3100 3101 3103 3105 3107 3108 3107 3108 3108 3108 3108 3109 3109 3108 3107 3108 3108 3108 3108 3108 3108 3108 3108 3109 3110 3110 3110 3111 3112 3111 3111 3111 3112 3110 3110 3112 3112 3113 3111 3110 3111 3111 3112 3113 3115
3096 3096 3095 3095 3095 3095 3096 3096 3096 3096 3096 3096 3096 3096 3096 3096 3096 3096 3095 3095 3095 3095 3094 3094 3095 3095 3095 3095 3096 3096 3095 3093 3093 3092 3092 3092 3092 3092 3092 3093 3094 3096 3099 3100 3100 3102 3103 3104 3105 3106 3107 3107 3107 3107 3107 3107 3107 3106 3107 3107 3106 3106 3107 3107 3107 3107 3108 3108 3109 3110 3111 3111 3111 3110 3110 3111 3110 3111 3112 3112 3112 3111 3110 3111 3111 3112 3113 3114
3096 3096 3095 3095 3095 3095 3095 3095 3095 3095 3095 3095 3095 3095 3095 3095 3095 3095 3095 3094 3094 3094 3094 3094 3095 3095 3095 3095 3095 3095 3094 3093 3093 3092 3092 3092 3092 3093 3093 3094 3094 3096 3099 3101 3101 3101 3101 3102 3103 3105 3107 3106 3107 3107 3105 3105 3106 3106 3106 3106 3105 3105 3105 3105 3105 3106 3107 3107 3107 3109 3110 3110 3110 3109 3109 3110 3110 3111 3112 3112 3111 3110 3111 3112 3111 3111 3112 3113
3096 3096 3095 3094 3094 3094 3094 3094 3094 3094 3094 3094 3094 3095 3095 3095 3095 3094 3094 3094 3094 3094 3094 3094 3095 3095 3096 3096 3094 3094 3094 3093 3093 3093 3092 3092 3093 3093 3093 3094 3095 3096 3098 3101 3102 3100 3100 3101 3101 3104 3105 3105 3107 3106 3103 3104 3105 3105 3105 3104 3104 3104 3102 3103 3104 3106 3106 3105 3107 3108 3107 3106 3107 3108 3109 3110 3110 3112 3112 3113 3112 3111 3111 3111 3111 3111 3112 3113
3096 3096 3095 3094 3094 3093 3093 3093 3093 3093 3093 3094 3094 3094 3094 3094 3094 3094 3094 3094 3094 3094 3094 3094 3095 3095 3096 3096 3094 3094 3094 3093 3093 3093 3092 3093 3093 3094 3094 3095 3095 3096 3097 3098 3100 3099 3099 3100 3101 3102 3103 3104 3105 3104 3103 3104 3104 3104 3104 3103 3102 3100 3098 3101 3104 3105 3105 3104 3106 3108 3105 3104 3105 3106 3109 3110 3111 3112 3112 3113 3113 3112 3111 3110 3109 3110 3111 3111
3096 3095 3095 3094 3094 3093 3093 3093 3092 3092 3092 3093 3093 3093 3093 3093 3093 3093 3093 3093 3093 3094 3094 3094 3095 3095 3096 3096 3095 3094 3094 3093 3093 3093 3093 3093 3094 3095 3095 3095 3096 3096 3097 3098 3098 3099 3099 3100 3101 3103 3104 3104 3103 3103 3103 3103 3103 3103 3102 3101 3099 3097 3096 3100 3102 3103 3104 3103 3105 3107 3104 3103 3104 3105 3108 3110 3110 3111 3112 3113 3113 3112 3112 3110 3108 3109 3110 3110
3096 3095 3095 3094 3094 3093 3093 3092 3092 3092 3092 3092 3092 3092 3092 3093 3093 3093 3093 3093 3093 3093 3094 3094 3095 3096 3096 3096 3095 3094 3094 3094 3094 3094 3094 3094 3096 3097 3096 3096 3097 3097 3098 3098 3098 3099 3100 3100 3101 3103 3104 3104 3103 3103 3102 3101 3101 3101 3099 3097 3096 3095 3096 3099 3101 3102 3103 3103 3105 3105 3103 3102 3103 3105 3107 3109 3110 3111 3112 3112 3112 3112 3111 3110 3108 3109 3109 3110
3095 3095 3094 3094 3093 3093 3093 3092 3092 3091 3091 3091 3091 3091 3092 3092 3092 3093 3093 3093 3093 3093 3094 3095 3095 3096 3096 3095 3095 3095 3094 3095 3094 3094 3094 3094 3096 3098 3097 3097 3098 3098 3099 3099 3099 3099 3100 3101 3102 3102 3103 3103 3103 3102 3100 3098 3097 3098 3097 3096 3095 3095 3093 3095 3098 3100 3101 3102 3103 3103 3103 3102 3103 3104 3107 3108 3109 3110 3111 3111 3112 3112 3111 3110 3109 3108 3109 3110
3095 3095 3094 3094 3093 3093 3092 3092 3091 3091 3091 3091 3091 3091 3091 3091 3092 3092 3092 3093 3093 3094 3095 3095 3095 3096 3095 3095 3095 3096 3095 3095 3094 3094 3095 3095 3096 3097 3097 3099 3099 3099 3099 3100 3100 3100 3101 3102 3103 3102 3102 3102 3101 3101 3098 3096 3095 3095 3096 3096 3096 3096 3094 3094 3096 3099 3101 3102 3101 3100 3102 3102 3102 3103 3105 3107 3108 3109 3110 3110 3111 3111 3111 3111 3110 3109 3108 3109
3095 3094 3094 3093 3093 3092 3092 3092 3091 3091 3090 3090 3091 3091 3091 3091 3091 3092 3092 3092 3092 3093 3095 3095 3095 3096 3096 3095 3096 3096 3095 3095 3094 3094 3095 3095 3095 3096 3098 3099 3100 3100 3101 3101 3101 3101 3102 3102 3102 3102 3100 3100 3099 3099 3097 3096 3095 3094 3094 3095 3095 3095 3095 3095 3096 3098 3101 3101 3100 3100 3101 3101 3101 3102 3104 3106 3107 3108 3109 3109 3110 3110 3111 3111 3111 3111 3108 3106
3095 3094 3094 3093 3093 3092 3092 3091 3091 3091 3090 3090 3090 3091 3091 3092 3092 3092 3091 3091 3092 3092 3093 3094 3094 3096 3096 3096 3095 3094 3094 3094 3094 3095 3095 3095 3095 3097 3098 3099 3100 3101 3101 3102 3102 3102 3102 3102 3101 3099 3098 3097 3097 3097 3096 3096 3096 3095 3095 3095 3094 3094 3094 3094 3096 3099 3101 3101 3100 3099 3100 3100 3100 3102 3103 3104 3106 3107 3107 3107 3108 3109 3110 3110 3111 3112 3110 3106
3095 3094 3094 3093 3093 3092 3092 3091 3091 3090 3090 3090 3090 3090 3091 3091 3092 3091 3090 3091 3092 3091 3091 3093 3093 3095 3096 3095 3095 3094 3094 3094 3095 3096 3096 3095 3096 3097 3098 3099 3100 3101 3101 3102 3102 3101 3101 3100 3099 3097 3095 3095 3096 3097 3097 3098 3098 3098 3098 3096 3094 3094 3094 3094 3095 3098 3100 3101 3099 3098 3099 3100 3100 3101 3102 3103 3104 3105 3105 3106 3106 3107 3109 3110 3110 3112 3111 3107
3094 3094 3093 3093 3092 3092 3092 3091 3091 3090 3090 3090 3090 3090 3091 3090 3090 3090 3089 3091 3092 3091 3091 3091 3092 3093 3094 3094 3094 3094 3095 3096 3096 3096 3096 3096 3097 3098 3099 3099 3100 3100 3100 3101 3101 3100 3099 3098 3097 3096 3095 3096 3097 3098 3098 3099 3099 3099 3098 3097 3094 3093 3093 3094 3095 3098 3100 3100 3099 3097 3097 3099 3099 3100 3101 3101 3102 3103 3103 3104 3104 3105 3107 3108 3109 3110 3111 3108
3094 3093 3093 3093 3092 3092 3091 3091 3091 3090 3090 3090 3090 3090 3090 3090 3089 3089 3089 3089 3091 3090 3090 3091 3091 3093 3094 3093 3093 3093 3095 3097 3097 3096 3095 3095 3097 3098 3099 3099 3099 3099 3099 3099 3099 3099 3097 3095 3094 3094 3095 3096 3097 3097 3098 3098 3098 3098 3097 3096 3094 3093 3092 3092 3095 3098 3099 3099 3098 3097 3096 3097 3098 3098 3099 3099 3100 3101 3102 3102 3103 3104 3105 3106 3108 3109 3109 3109
3093 3093 3093 3092 3092 3091 3091 3091 3091 3090 3090 3090 3090 3089 3090 3089 3088 3088 3088 3088 3090 3089 3089 3090 3091 3093 3094 3093 3093 3093 3094 3096 3097 3095 3093 3095 3097 3098 3098 3099 3098 3098 3098 3098 3098 3097 3095 3093 3093 3094 3095 3096 3097 3097 3097 3097 3096 3096 3095 3094 3093 3092 3092 3093 3095 3097 3098 3097 3097 3097 3096 3095 3096 3095 3095 3097 3098 3099 3100 3100 3101 3102 3103 3104 3106 3107 3107 3108
3092 3092 3092 3092 3091 3091 3091 3091 3090 3090 3090 3090 3090 3089 3089 3089 3088 3088 3087 3088 3089 3088 3088 3089 3090 3092 3092 3091 3092 3093 3094 3095 3096 3094 3092 3094 3097 3097 3097 3097 3097 3097 3096 3096 3097 3096 3093 3092 3093 3094 3095 3096 3097 3096 3096 3096 3095 3094 3093 3094 3093 3093 3093 3095 3095 3096 3097 3095 3095 3096 3094 3091 3090 3091 3092 3094 3096 3097 3098 3099 3100 3100 3101 3102 3103 3104 3105 3105
3092 3091 3091 3091 3091 3090 3090 3090 3090 3090 3090 3090 3090 3089 3089 3089 3088 3087 3087 3087 3088 3087 3087 3088 3089 3089 3090 3090 3091 3093 3094 3093 3094 3094 3092 3093 3095 3095 3096 3096 3095 3095 3094 3095 3095 3094 3092 3091 3093 3094 3095 3096 3096 3095 3095 3095 3094 3092 3091 3092 3094 3094 3094 3095 3095 3095 3094 3092 3092 3094 3093 3089 3088 3089 3091 3093 3095 3096 3097 3097 3099 3099 3100 3102 3102 3103 3104 3104
3091 3091 3090 3090 3090 3090 3089 3090 3090 3090 3090 3090 3089 3089 3089 3088 3088 3087 3088 3087 3085 3085 3086 3087 3088 3087 3089 3090 3091 3092 3093 3091 3091 3092 3092 3092 3093 3094 3094 3094 3095 3093 3093 3095 3094 3092 3091 3092 3093 3094 3095 3095 3094 3093 3093 3094 3093 3091 3090 3092 3093 3093 3093 3094 3094 3093 3092 3091 3090 3091 3093 3090 3087 3088 3090 3092 3093 3094 3095 3096 3098 3099 3100 3101 3102 3103 3103 3103
3090 3090 3090 3089 3089 3089 3089 3089 3089 3089 3089 3089 3089 3089 3088 3088 3088 3088 3088 3086 3082 3083 3085 3085 3085 3086 3088 3089 3089 3091 3091 3090 3090 3090 3091 3091 3092 3093 3093 3093 3093 3092 3093 3093 3091 3091 3091 3092 3092 3093 3093 3093 3092 3091 3091 3092 3092 3091 3091 3092 3092 3092 3092 3093 3093 3092 3091 3091 3089 3088 3090 3089 3085 3086 3088 3090 3092 3093 3093 3095 3096 3098 3099 3099 3100 3100 3100 3100
3089 3089 3089 3088 3088 3088 3088 3088 3088 3088 3088 3088 3088 3088 3088 3088 3088 3087 3088 3085 3081 3082 3084 3083 3084 3085 3087 3088 3088 3089 3089 3090 3089 3088 3089 3090 3090 3091 3092 3092 3092 3091 3092 3092 3091 3090 3091 3091 3091 3092 3092 3091 3091 3090 3090 3091 3091 3091 3091 3092 3092 3091 3091 3092 3091 3091 3091 3091 3088 3087 3089 3087 3084 3085 3086 3089 3090 3091 3091 3094 3096 3097 3098 3098 3097 3097 3098 3098
3087 3088 3087 3087 3087 3087 3087 3087 3087 3087 3087 3087 3087 3087 3087 3087 3087 3088 3087 3084 3080 3081 3082 3082 3083 3084 3085 3086 3087 3087 3088 3089 3089 3088 3089 3090 3090 3090 3090 3090 3091 3091 3091 3091 3090 3090 3090 3090 3090 3090 3090 3090 3089 3089 3089 3090 3090 3091 3091 3090 3090 3090 3090 3091 3090 3090 3089 3087 3084 3085 3087 3087 3084 3082 3083 3086 3088 3089 3091 3093 3095 3096 3097 3096 3095 3096 3096 3096
3086 3086 3086 3086 3086 3086 3086 3086 3085 3086 3086 3086 3086 3087 3087 3087 3087 3087 3084 3081 3079 3080 3081 3081 3082 3083 3084 3084 3085 3086 3086 3087 3087 3087 3088 3089 3089 3090 3090 3090 3090 3090 3090 3089 3089 3089 3089 3088 3088 3088 3088 3088 3089 3088 3088 3089 3090 3090 3090 3089 3089 3089 3089 3089 3088 3089 3088 3083 3082 3083 3085 3086 3083 3081 3082 3085 3088 3089 3091 3092 3094 3095 3095 3094 3094 3094 3094 3095
3084 3084 3084 3085 3084 3085 3085 3084 3084 3085 3085 3085 3085 3086 3086 3086 3086 3084 3081 3080 3079 3078 3079 3080 3081 3081 3082 3083 3083 3084 3085 3085 3086 3086 3086 3087 3087 3088 3088 3088 3088 3088 3087 3086 3087 3087 3087 3086 3086 3087 3087 3087 3088 3087 3087 3088 3088 3089 3088 3087 3088 3088 3088 3087 3085 3086 3085 3082 3082 3082 3084 3085 3082 3081 3083 3086 3088 3089 3090 3092 3092 3093 3093 3093 3093 3093 3093 3094
3083 3082 3083 3083 3083 3083 3083 3083 3083 3083 3084 3084 3084 3085 3086 3086 3082 3080 3080 3079 3078 3077 3078 3079 3079 3080 3081 3081 3081 3082 3083 3084 3084 3085 3085 3085 3086 3086 3087 3087 3087 3087 3086 3086 3086 3085 3084 3084 3085 3086 3086 3086 3086 3085 3085 3086 3087 3087 3086 3087 3087 3086 3088 3087 3084 3082 3081 3080 3082 3084 3084 3084 3081 3081 3083 3085 3086 3088 3088 3090 3090 3091 3091 3091 3092 3092 3092 3092
3081 3081 3081 3081 3081 3081 3082 3082 3082 3082 3083 3083 3084 3084 3085 3083 3080 3078 3079 3078 3077 3077 3078 3078 3078 3079 3079 3079 3080 3081 3082 3082 3083 3083 3084 3084 3084 3085 3086 3086 3086 3087 3087 3086 3085 3084 3082 3081 3082 3084 3084 3084 3085 3084 3084 3085 3086 3085 3085 3086 3085 3085 3086 3085 3082 3080 3079 3078 3081 3084 3084 3082 3079 3080 3083 3084 3085 3086 3087 3088 3088 3089 3090 3090 3091 3091 3091 3091
3079 3078 3078 3079 3079 3080 3080 3080 3080 3081 3081 3082 3083 3083 3082 3080 3078 3077 3077 3077 3077 3077 3077 3077 3077 3078 3078 3078 3079 3080 3080 3081 3081 3082 3082 3082 3082 3082 3084 3085 3085 3086 3086 3085 3083 3083 3082 3080 3081 3083 3083 3084 3084 3084 3084 3084 3084 3083 3084 3083 3083 3083 3084 3083 3082 3081 3081 3081 3081 3081 3081 3080 3079 3080 3082 3083 3084 3085 3086 3086 3087 3088 3089 3089 3089 3090 3090 3090
3076 3076 3076 3076 3077 3078 3078 3078 3079 3080 3080 3080 3082 3081 3079 3077 3076 3075 3074 3075 3076 3076 3076 3076 3076 3076 3077 3078 3078 3079 3079 3079 3080 3080 3080 3080 3081 3081 3083 3084 3084 3085 3085 3084 3083 3083 3082 3079 3080 3082 3083 3083 3083 3083 3084 3084 3082 3082 3082 3082 3081 3082 3083 3082 3081 3081 3083 3082 3079 3078 3078 3078 3079 3079 3080 3082 3083 3084 3085 3086 3087 3087 3087 3088 3088 3088 3088 3088
3074 3074 3074 3074 3074 3075 3076 3077 3077 3078 3078 3079 3079 3078 3076 3076 3075 3074 3074 3074 3075 3075 3075 3075 3074 3075 3076 3077 3077 3078 3078 3078 3078 3078 3078 3079 3080 3080 3082 3083 3082 3084 3085 3084 3084 3084 3082 3080 3080 3082 3081 3081 3082 3082 3082 3083 3082 3081 3081 3081 3081 3081 3081 3081 3080 3080 3080 3078 3075 3075 3075 3075 3077 3077 3078 3081 3082 3083 3084 3085 3085 3085 3086 3086 3086 3087 3087 3087
3071 3071 3072 3072 3072 3073 3074 3075 3076 3076 3077 3078 3077 3075 3075 3074 3074 3073 3073 3073 3074 3074 3074 3074 3074 3074 3075 3076 3076 3076 3076 3076 3077 3077 3077 3078 3078 3079 3081 3082 3081 3082 3083 3083 3084 3083 3083 3081 3079 3080 3080 3080 3080 3081 3081 3080 3080 3080 3080 3080 3081 3080 3079 3080 3080 3079 3079 3077 3074 3073 3072 3073 3074 3075 3076 3079 3080 3082 3083 3084 3084 3084 3084 3085 3085 3085 3086 3086
3069 3069 3069 3068 3069 3071 3072 3073 3074 3074 3075 3075 3074 3073 3073 3072 3072 3072 3072 3072 3073 3073 3073 3072 3073 3074 3074 3074 3074 3075 3075 3075 3075 3076 3075 3076 3077 3077 3080 3081 3080 3080 3081 3082 3083 3082 3083 3082 3078 3078 3079 3079 3079 3080 3079 3078 3078 3079 3079 3079 3080 3079 3078 3078 3077 3077 3077 3075 3073 3072 3071 3071 3072 3073 3075 3077 3079 3080 3081 3082 3084 3083 3083 3083 3083 3084 3084 3085
3067 3068 3067 3066 3067 3069 3070 3071 3072 3072 3072 3072 3072 3071 3071 3071 3071 3070 3070 3070 3072 3072 3071 3071 3072 3072 3073 3073 3073 3074 3074 3074 3075 3075 3074 3075 3075 3076 3078 3079 3079 3080 3080 3081 3082 3082 3082 3082 3079 3077 3078 3078 3077 3077 3076 3076 3076 3077 3077 3077 3077 3077 3078 3077 3075 3075 3074 3072 3071 3071 3070 3069 3071 3073 3074 3076 3077 3079 3080 3081 3082 3081 3080 3081 3082 3082 3083 3083
3065 3066 3065 3063 3065 3066 3067 3068 3069 3069 3070 3070 3070 3070 3070 3069 3070 3069 3068 3068 3070 3070 3070 3070 3070 3071 3071 3071 3072 3072 3073 3073 3073 3074 3073 3073 3074 3075 3075 3076 3078 3079 3079 3080 3081 3081 3081 3080 3079 3077 3077 3075 3075 3075 3075 3075 3075 3076 3075 3075 3075 3076 3077 3075 3072 3073 3074 3071 3070 3070 3068 3068 3070 3073 3074 3076 3076 3078 3079 3080 3080 3079 3079 3079 3080 3080 3081 3082
3063 3064 3063 3062 3063 3064 3065 3066 3066 3067 3068 3067 3068 3068 3067 3067 3068 3069 3067 3067 3068 3069 3069 3069 3069 3070 3070 3070 3071 3071 3071 3072 3072 3072 3072 3072 3073 3073 3072 3073 3075 3077 3078 3079 3079 3078 3078 3079 3078 3077 3075 3074 3073 3073 3074 3074 3075 3076 3075 3074 3075 3075 3075 3074 3071 3072 3073 3071 3070 3070 3068 3067 3070 3072 3074 3075 3076 3077 3079 3079 3079 3078 3077 3078 3078 3079 3079 3080
3061 3063 3061 3059 3061 3062 3063 3064 3065 3065 3065 3065 3066 3066 3065 3065 3067 3067 3067 3067 3067 3068 3068 3068 3068 3068 3069 3069 3070 3070 3071 3070 3070 3071 3071 3072 3072 3070 3071 3072 3074 3076 3077 3078 3078 3076 3077 3078 3077 3075 3073 3072 3071 3072 3072 3072 3074 3074 3073 3073 3074 3073 3074 3074 3072 3073 3072 3071 3071 3070 3067 3067 3069 3070 3072 3073 3074 3076 3077 3078 3077 3076 3076 3076 3077 3077 3077 3078
3058 3059 3059 3057 3058 3060 3061 3062 3063 3063 3063 3063 3064 3064 3064 3064 3065 3065 3065 3066 3066 3066 3066 3067 3067 3067 3067 3068 3068 3069 3070 3069 3069 3070 3070 3072 3071 3068 3070 3072 3073 3076 3076 3076 3076 3075 3075 3077 3076 3074 3071 3069 3068 3068 3069 3070 3072 3072 3071 3072 3072 3072 3073 3073 3073 3074 3071 3069 3071 3070 3066 3066 3069 3070 3071 3072 3073 3074 3075 3075 3075 3074 3074 3075 3075 3075 3076 3076
3055 3057 3057 3056 3056 3057 3058 3060 3060 3060 3061 3061 3061 3062 3062 3062 3062 3062 3063 3064 3064 3065 3065 3066 3066 3066 3066 3067 3067 3068 3069 3068 3069 3069 3069 3071 3069 3067 3069 3070 3072 3074 3073 3072 3074 3075 3075 3076 3075 3073 3071 3068 3066 3066 3066 3068 3070 3070 3070 3070 3069 3071 3072 3072 3073 3072 3068 3067 3069 3068 3065 3066 3069 3070 3071 3072 3072 3073 3073 3073 3073 3073 3073 3073 3073 3074 3075 3075
3054 3055 3056 3055 3054 3055 3056 3057 3057 3058 3059 3059 3059 3059 3060 3061 3060 3060 3061 3062 3062 3062 3064 3064 3064 3065 3065 3066 3066 3066 3067 3067 3068 3068 3068 3069 3069 3067 3067 3069 3071 3071 3070 3071 3073 3074 3074 3074 3074 3073 3071 3068 3067 3066 3067 3069 3069 3069 3069 3068 3068 3070 3071 3072 3072 3069 3067 3066 3065 3064 3065 3066 3068 3069 3070 3070 3072 3072 3072 3071 3072 3072 3071 3071 3072 3073 3073 3074
3052 3053 3053 3053 3053 3054 3055 3055 3055 3056 3057 3057 3057 3057 3058 3059 3059 3058 3059 3060 3060 3060 3062 3062 3062 3063 3064 3064 3065 3065 3065 3066 3066 3066 3067 3068 3068 3066 3065 3068 3069 3067 3068 3070 3071 3072 3073 3072 3071 3071 3070 3068 3068 3067 3067 3068 3067 3067 3067 3067 3068 3068 3068 3069 3069 3067 3068 3067 3062 3061 3065 3066 3066 3068 3069 3069 3070 3071 3071 3070 3071 3071 3070 3069 3070 3071 3071 3072
3050 3050 3050 3051 3052 3053 3053 3053 3053 3054 3054 3054 3055 3055 3055 3057 3058 3057 3057 3058 3058 3058 3060 3060 3060 3062 3062 3063 3063 3063 3064 3064 3064 3065 3065 3066 3067 3065 3064 3067 3068 3066 3067 3069 3069 3070 3071 3070 3069 3069 3068 3067 3067 3067 3066 3067 3066 3065 3066 3065 3066 3067 3066 3066 3066 3065 3067 3066 3060 3061 3064 3064 3064 3067 3068 3068 3068 3068 3068 3068 3069 3069 3068 3067 3068 3069 3069 3070
3048 3048 3048 3049 3050 3050 3050 3049 3050 3052 3052 3052 3053 3053 3054 3055 3056 3056 3056 3057 3057 3057 3058 3058 3059 3060 3061 3061 3062 3062 3062 3062 3062 3063 3063 3064 3064 3065 3065 3066 3066 3065 3066 3067 3068 3068 3068 3067 3067 3067 3066 3065 3065 3064 3064 3064 3064 3063 3063 3063 3063 3064 3064 3064 3063 3063 3064 3063 3061 3062 3062 3060 3062 3064 3065 3066 3067 3066 3066 3066 3066 3067 3066 3066 3066 3067 3068 3068
3046 3047 3046 3047 3049 3048 3048 3048 3049 3050 3051 3051 3051 3052 3052 3053 3054 3055 3055 3055 3055 3056 3056 3057 3058 3059 3059 3060 3060 3060 3059 3059 3060 3060 3061 3061 3062 3063 3064 3065 3065 3065 3065 3066 3067 3066 3066 3065 3066 3065 3064 3062 3062 3062 3062 3062 3062 3060 3060 3060 3060 3060 3060 3060 3060 3060 3061 3060 3059 3060 3058 3056 3059 3061 3062 3063 3064 3064 3064 3064 3064 3065 3064 3065 3064 3064 3066 3066
3046 3046 3045 3046 3048 3047 3048 3048 3049 3050 3050 3050 3050 3050 3051 3052 3053 3054 3053 3052 3053 3053 3054 3055 3056 3056 3057 3058 3057 3056 3055 3056 3057 3058 3059 3060 3061 3062 3062 3062 3062 3063 3063 3064 3065 3064 3064 3064 3064 3065 3062 3059 3060 3061 3060 3059 3059 3057 3055 3056 3057 3057 3057 3057 3057 3057 3058 3058 3057 3057 3055 3054 3056 3058 3058 3059 3060 3060 3061 3061 3062 3062 3062 3062 3062 3062 3063 3063
3045 3045 3045 3046 3047 3047 3047 3048 3048 3049 3049 3048 3048 3049 3050 3051 3052 3052 3051 3051 3051 3051 3052 3052 3053 3054 3056 3056 3053 3052 3053 3055 3055 3056 3057 3058 3058 3059 3060 3060 3060 3061 3061 3062 3062 3063 3063 3063 3063 3063 3060 3057 3058 3059 3057 3057 3056 3053 3052 3053 3054 3055 3054 3054 3054 3054 3055 3056 3055 3054 3052 3053 3054 3054 3054 3055 3056 3056 3057 3057 3058 3058 3059 3060 3059 3060 3060 3060